| time (UTC) | temp F | wind direction | speed MPH | gust MPH | rain 1hr in | rain 24hr in | rain mn in | humidity % | barometer mb |
| 20260508081953 | 46 | 0 | 0.0 | 0.0 | 0.00 | 0.00 | 0.00 | 77 | 1014.6 |
| 20260508080937 | 47 | 0 | 0.0 | 0.0 | 0.00 | 0.00 | 0.00 | 70 | 1014.4 |
| 20260508075954 | 48 | 0 | 0.0 | 0.0 | 0.00 | 0.00 | 0.00 | 63 | 1014.2 |
| 20260508074923 | 49 | 0 | 0.0 | 0.0 | 0.00 | 0.00 | 0.00 | 64 | 1014.1 |
| 20260508073903 | 49 | 0 | 0.0 | 1.0 | 0.00 | 0.00 | 0.00 | 63 | 1013.9 |
| 20260508072840 | 49 | 0 | 0.0 | 0.0 | 0.00 | 0.00 | 0.00 | 65 | 1013.7 |
| 20260508071854 | 49 | 0 | 0.0 | 0.0 | 0.00 | 0.00 | 0.00 | 66 | 1013.6 |
| 20260508065727 | 48 | 0 | 0.0 | 0.0 | 0.00 | 0.00 | 0.00 | 74 | 1013.3 |
| 20260508064741 | 47 | 0 | 0.0 | 0.0 | 0.00 | 0.00 | 0.00 | 81 | 1013.2 |
| 20260508063746 | 46 | 0 | 0.0 | 0.0 | 0.00 | 0.00 | 0.00 | 86 | 1013.1 |
| 20260508062711 | 46 | 0 | 0.0 | 0.0 | 0.00 | 0.00 | 0.00 | 88 | 1013.1 |
| 20260508061640 | 47 | 0 | 0.0 | 0.0 | 0.00 | 0.00 | 0.00 | 88 | 1013.0 |
| 20260508060645 | 47 | 0 | 0.0 | 0.0 | 0.00 | 0.00 | 0.00 | 87 | 1012.9 |
| 20260508055637 | 47 | 0 | 0.0 | 0.0 | 0.00 | 0.00 | 0.00 | 87 | 1013.0 |
| 20260508053506 | 47 | 0 | 0.0 | 0.0 | 0.00 | 0.00 | 0.00 | 86 | 1012.7 |
| 20260508052523 | 47 | 0 | 0.0 | 0.0 | 0.00 | 0.00 | 0.00 | 86 | 1012.6 |
| 20260508051455 | 48 | 0 | 0.0 | 0.0 | 0.00 | 0.01 | 0.00 | 85 | 1012.6 |
| 20260508050505 | 48 | 0 | 0.0 | 0.0 | 0.00 | 0.06 | 0.00 | 85 | 1012.5 |
| 20260508044336 | 48 | 0 | 0.0 | 0.0 | 0.00 | 0.21 | 0.00 | 84 | 1012.3 |
| 20260508043335 | 49 | 0 | 0.0 | 1.0 | 0.00 | 0.21 | 0.00 | 83 | 1012.2 |
| 20260508042307 | 49 | 0 | 0.0 | 1.0 | 0.00 | 0.21 | 0.00 | 83 | 1012.2 |
| 20260508041245 | 48 | 0 | 0.0 | 0.0 | 0.00 | 0.21 | 0.00 | 84 | 1012.0 |
| 20260508032858 | 49 | 0 | 0.0 | 0.0 | 0.00 | 0.21 | 0.21 | 82 | 1011.9 |
| 20260508031836 | 50 | 0 | 0.0 | 0.0 | 0.00 | 0.21 | 0.21 | 80 | 1011.9 |
| 20260508030823 | 50 | 0 | 0.0 | 0.0 | 0.00 | 0.21 | 0.21 | 80 | 1011.8 |
| 20260508025825 | 51 | 0 | 0.0 | 0.0 | 0.00 | 0.21 | 0.21 | 78 | 1011.8 |
| 20260508024833 | 51 | 0 | 0.0 | 1.0 | 0.00 | 0.21 | 0.21 | 77 | 1011.8 |
| 20260508023816 | 51 | 0 | 0.0 | 0.0 | 0.00 | 0.21 | 0.21 | 76 | 1011.8 |
| 20260508022807 | 51 | 134 | 0.0 | 0.0 | 0.00 | 0.21 | 0.21 | 75 | 1011.8 |
| 20260508020614 | 52 | 134 | 0.0 | 0.0 | 0.00 | 0.21 | 0.21 | 73 | 1011.6 |
| 20260508015604 | 52 | 130 | 0.0 | 3.0 | 0.00 | 0.21 | 0.21 | 72 | 1011.5 |
| 20260508013414 | 53 | 155 | 0.0 | 1.0 | 0.00 | 0.21 | 0.21 | 71 | 1011.5 |
| 20260508011258 | 54 | 130 | 0.0 | 2.0 | 0.00 | 0.21 | 0.21 | 68 | 1011.2 |
| 20260508010232 | 54 | 161 | 0.0 | 3.0 | 0.00 | 0.21 | 0.21 | 67 | 1011.1 |
| 20260508004123 | 54 | 147 | 0.0 | 4.0 | 0.00 | 0.21 | 0.21 | 65 | 1010.6 |
| 20260508003054 | 55 | 152 | 0.0 | 4.0 | 0.00 | 0.21 | 0.21 | 64 | 1010.5 |
| 20260508002054 | 55 | 140 | 0.0 | 5.0 | 0.00 | 0.21 | 0.21 | 63 | 1010.5 |
| 20260508001050 | 55 | 142 | 1.0 | 5.0 | 0.00 | 0.21 | 0.21 | 63 | 1010.3 |
| 20260508000110 | 56 | 157 | 0.0 | 10.0 | 0.00 | 0.21 | 0.21 | 62 | 1010.1 |
| 20260507235107 | 56 | 74 | 1.0 | 10.0 | 0.00 | 0.21 | 0.21 | 59 | 1010.0 |
| 20260507234036 | 57 | 157 | 0.0 | 9.0 | 0.00 | 0.21 | 0.21 | 59 | 1009.8 |
| 20260507230714 | 58 | 87 | 1.0 | 6.0 | 0.00 | 0.21 | 0.21 | 57 | 1009.4 |
| 20260507225739 | 59 | 190 | 1.0 | 5.0 | 0.00 | 0.21 | 0.21 | 56 | 1009.3 |
| 20260507224729 | 59 | 258 | 0.0 | 5.0 | 0.00 | 0.21 | 0.21 | 59 | 1009.1 |
| 20260507223727 | 59 | 157 | 0.0 | 5.0 | 0.00 | 0.21 | 0.21 | 57 | 1009.1 |
| 20260507222743 | 60 | 195 | 0.0 | 5.0 | 0.00 | 0.21 | 0.21 | 54 | 1008.9 |
| 20260507221736 | 60 | 218 | 0.0 | 5.0 | 0.00 | 0.21 | 0.21 | 53 | 1009.0 |
| 20260507220731 | 61 | 138 | 0.0 | 3.0 | 0.00 | 0.21 | 0.21 | 53 | 1008.8 |
| 20260507215734 | 62 | 239 | 0.0 | 3.0 | 0.00 | 0.21 | 0.21 | 49 | 1008.8 |
| 20260507214737 | 63 | 97 | 0.0 | 0.0 | 0.00 | 0.21 | 0.21 | 47 | 1008.8 |
| 20260507213738 | 64 | 97 | 0.0 | 2.0 | 0.00 | 0.21 | 0.21 | 40 | 1008.8 |
| 20260507212758 | 64 | 90 | 0.0 | 3.0 | 0.00 | 0.21 | 0.21 | 40 | 1008.9 |
| 20260507211809 | 63 | 38 | 0.0 | 3.0 | 0.00 | 0.21 | 0.21 | 36 | 1008.9 |
| 20260507210755 | 64 | 92 | 0.0 | 0.0 | 0.00 | 0.21 | 0.21 | 39 | 1009.0 |
| 20260507203507 | 62 | 33 | 0.0 | 1.0 | 0.00 | 0.21 | 0.21 | 37 | 1009.1 |
| 20260507202500 | 64 | 11 | 0.0 | 0.0 | 0.00 | 0.21 | 0.21 | 39 | 1009.0 |
| 20260507201515 | 64 | 31 | 0.0 | 5.0 | 0.00 | 0.21 | 0.21 | 36 | 1008.8 |
| 20260507195341 | 64 | 155 | 0.0 | 1.0 | 0.00 | 0.21 | 0.21 | 42 | 1009.0 |
| 20260507194306 | 64 | 74 | 0.0 | 3.0 | 0.00 | 0.21 | 0.21 | 41 | 1009.2 |
| 20260507192111 | 65 | 182 | 0.0 | 5.0 | 0.00 | 0.21 | 0.21 | 43 | 1009.6 |
| 20260507191055 | 64 | 192 | 0.0 | 3.0 | 0.00 | 0.21 | 0.21 | 46 | 1009.6 |
| 20260507190039 | 63 | 133 | 0.0 | 1.0 | 0.00 | 0.21 | 0.21 | 43 | 1009.6 |
| 20260507185031 | 62 | 150 | 0.0 | 4.0 | 0.00 | 0.21 | 0.21 | 47 | 1009.8 |
| 20260507182916 | 62 | 77 | 0.0 | 5.0 | 0.00 | 0.21 | 0.21 | 46 | 1010.2 |
| 20260507181920 | 62 | 207 | 1.0 | 5.0 | 0.00 | 0.21 | 0.21 | 48 | 1010.2 |
| 20260507180938 | 62 | 308 | 0.0 | 3.0 | 0.00 | 0.21 | 0.21 | 47 | 1010.3 |
| 20260507175945 | 61 | 284 | 0.0 | 2.0 | 0.00 | 0.21 | 0.21 | 47 | 1010.5 |
| 20260507175005 | 60 | 55 | 0.0 | 1.0 | 0.00 | 0.21 | 0.21 | 51 | 1010.8 |
| 20260507174017 | 60 | 105 | 0.0 | 4.0 | 0.00 | 0.21 | 0.21 | 52 | 1010.9 |
| 20260507173002 | 60 | 248 | 1.0 | 4.0 | 0.00 | 0.21 | 0.21 | 44 | 1011.0 |
| 20260507171956 | 61 | 207 | 0.0 | 4.0 | 0.00 | 0.21 | 0.21 | 44 | 1011.2 |
| 20260507170924 | 57 | 46 | 0.0 | 0.0 | 0.00 | 0.21 | 0.21 | 48 | 1011.2 |
| 20260507165921 | 59 | 331 | 0.0 | 2.0 | 0.00 | 0.21 | 0.21 | 45 | 1011.3 |
| 20260507163757 | 55 | 32 | 0.0 | 0.0 | 0.00 | 0.21 | 0.21 | 59 | 1012.0 |
| 20260507162741 | 55 | 32 | 0.0 | 0.0 | 0.00 | 0.21 | 0.21 | 53 | 1012.2 |
| 20260507161802 | 55 | 32 | 0.0 | 1.0 | 0.00 | 0.21 | 0.21 | 53 | 1012.2 |
| 20260507160755 | 55 | 19 | 0.0 | 1.0 | 0.00 | 0.21 | 0.21 | 56 | 1012.3 |
| 20260507155819 | 55 | 30 | 0.0 | 0.0 | 0.00 | 0.21 | 0.21 | 56 | 1012.5 |
| 20260507154829 | 54 | 30 | 0.0 | 1.0 | 0.00 | 0.21 | 0.21 | 54 | 1012.6 |
| 20260507153828 | 54 | 35 | 0.0 | 1.0 | 0.00 | 0.21 | 0.21 | 57 | 1012.7 |
| 20260507152849 | 54 | 22 | 0.0 | 2.0 | 0.00 | 0.21 | 0.21 | 54 | 1012.6 |
| 20260507151912 | 54 | 49 | 0.0 | 0.0 | 0.00 | 0.22 | 0.21 | 62 | 1012.8 |
| 20260507150930 | 54 | 49 | 0.0 | 1.0 | 0.00 | 0.22 | 0.21 | 57 | 1012.9 |
| 20260507145938 | 54 | 109 | 0.0 | 0.0 | 0.00 | 0.22 | 0.21 | 59 | 1013.0 |
| 20260507142656 | 52 | 0 | 0.0 | 0.0 | 0.00 | 0.25 | 0.21 | 64 | 1013.4 |
| 20260507141651 | 52 | 0 | 0.0 | 1.0 | 0.00 | 0.27 | 0.21 | 60 | 1013.3 |
| 20260507140622 | 52 | 0 | 0.0 | 1.0 | 0.00 | 0.28 | 0.21 | 61 | 1013.5 |
| 20260507134541 | 52 | 0 | 0.0 | 0.0 | 0.00 | 0.33 | 0.21 | 66 | 1013.6 |
| 20260507132436 | 52 | 0 | 0.0 | 1.0 | 0.00 | 0.37 | 0.21 | 64 | 1013.5 |
| 20260507130239 | 52 | 0 | 0.0 | 0.0 | 0.00 | 0.38 | 0.21 | 65 | 1013.7 |
| 20260507124045 | 52 | 0 | 0.0 | 2.0 | 0.00 | 0.40 | 0.21 | 67 | 1013.5 |
| 20260507123013 | 52 | 32 | 0.0 | 0.0 | 0.00 | 0.41 | 0.21 | 70 | 1013.6 |
| 20260507121954 | 52 | 42 | 0.0 | 2.0 | 0.00 | 0.41 | 0.21 | 69 | 1013.4 |
| 20260507120931 | 52 | 43 | 0.0 | 0.0 | 0.00 | 0.41 | 0.21 | 81 | 1013.3 |
| 20260507115956 | 52 | 44 | 0.0 | 2.0 | 0.00 | 0.41 | 0.21 | 85 | 1013.1 |
| 20260507114939 | 52 | 38 | 0.0 | 0.0 | 0.00 | 0.41 | 0.21 | 87 | 1013.2 |
| 20260507113948 | 52 | 38 | 0.0 | 1.0 | 0.00 | 0.41 | 0.21 | 88 | 1013.0 |
| 20260507112918 | 52 | 38 | 0.0 | 0.0 | 0.00 | 0.41 | 0.21 | 89 | 1013.0 |
| 20260507110742 | 52 | 38 | 0.0 | 0.0 | 0.00 | 0.41 | 0.21 | 90 | 1013.1 |
| 20260507105745 | 52 | 38 | 0.0 | 0.0 | 0.00 | 0.41 | 0.21 | 91 | 1013.0 |
| 20260507104739 | 51 | 38 | 0.0 | 0.0 | 0.00 | 0.41 | 0.21 | 92 | 1012.9 |
| 20260507102555 | 52 | 38 | 0.0 | 0.0 | 0.00 | 0.41 | 0.21 | 92 | 1012.5 |
| 20260507101525 | 52 | 38 | 0.0 | 0.0 | 0.00 | 0.41 | 0.21 | 92 | 1012.4 |
| 20260507095437 | 52 | 38 | 0.0 | 0.0 | 0.00 | 0.41 | 0.21 | 91 | 1012.3 |
| 20260507094405 | 52 | 38 | 0.0 | 0.0 | 0.00 | 0.41 | 0.21 | 91 | 1012.3 |
| 20260507093351 | 52 | 38 | 0.0 | 0.0 | 0.00 | 0.41 | 0.21 | 90 | 1012.1 |
| 20260507091159 | 52 | 38 | 0.0 | 0.0 | 0.00 | 0.41 | 0.21 | 89 | 1012.4 |
| 20260507090154 | 52 | 38 | 0.0 | 0.0 | 0.00 | 0.41 | 0.21 | 89 | 1012.4 |
| 20260507085205 | 52 | 38 | 0.0 | 0.0 | 0.00 | 0.41 | 0.21 | 89 | 1012.1 |
| 20260507084228 | 52 | 38 | 0.0 | 0.0 | 0.00 | 0.41 | 0.21 | 89 | 1011.9 |
| 20260507083241 | 52 | 38 | 0.0 | 0.0 | 0.00 | 0.41 | 0.21 | 90 | 1011.9 |